sat.trackr.live / text

‹ back to catalog

STARLINK-36984

NORAD 68168 · 2026-050B

PAYLOAD ACTIVE UNKNOWN

§ Identity

Operator
Country
US
Launch date
2026-03-14
Launch site
AFETR
Launch vehicle
Mass (kg)
RCS (m²)

Purposes: comms

External: N2YO · Heavens-Above · Gunter

§ Orbital elements

Epoch: 2026-05-25T01:24:59.811840Z

Period
93.37 min
Inclination
53.1596°
Eccentricity
0.0001001
Mean motion
15.42188568 rev/d
Perigee alt
439.0 km
Apogee alt
440.3 km
Semi-major
6,817.8 km
B*
1.0722e-3
RAAN
271.4725°
Arg perigee
85.1486°
Mean anomaly
274.9634°
Rev number
1,238

§ Raw data

STARLINK-369841 68168U 26050B   26145.05902560  .00046574  00000+0  10722-2 0  99962 68168  53.1596 271.4725 0001001  85.1486 274.9634 15.42188568 12389

JSON: /api/v1/satellites/68168 · /tle

For live sub-satellite position, see the globe view (requires WebGL).

§ Visibility from observer

Set your observer location to see the next 7 days of passes ≥ 10°. The values pass through the URL so the page stays shareable.

No JS? Fill the form by hand. The geolocation button needs JavaScript.